This is the latest recevied weather packets stored in our database for station/object SP2ARK-10. If no packets are shown the sender has not sent any weather packets the latest 10 day(s).
| Time | Temp. | Humidity | Pressure | Rain* | Wind** | Luminosity | Snow |
|---|---|---|---|---|---|---|---|
| 1777388373 | 13.33° C | 51% | 1029.5 hPa | - | - | - | - |
| 1777386572 | 12.22° C | 52% | 1029.9 hPa | - | - | - | - |
| 1777385672 | 12.22° C | 52% | 1030 hPa | - | - | - | - |
| 1777384771 | 12.78° C | 51% | 1030.1 hPa | - | - | - | - |
| 1777382970 | 12.78° C | 51% | 1030.3 hPa | - | - | - | - |
| 1777381168 | 11.67° C | 52% | 1030.6 hPa | - | - | - | - |
| 1777379367 | 12.22° C | 51% | 1030.8 hPa | - | - | - | - |
| 1777377566 | 12.22° C | 53% | 1031 hPa | - | - | - | - |
| 1777375763 | 12.22° C | 54% | 1031 hPa | - | - | - | - |
| 1777373962 | 11.67° C | 54% | 1031.4 hPa | - | - | - | - |
| 1777373062 | 11.11° C | 56% | 1031.5 hPa | - | - | - | - |
| 1777372160 | 10° C | 57% | 1031.6 hPa | - | - | - | - |
| 1777371260 | 10° C | 57% | 1031.6 hPa | - | - | - | - |
| 1777370359 | 10° C | 59% | 1031.6 hPa | - | - | - | - |
| 1777368557 | 8.89° C | 59% | 1031.9 hPa | - | - | - | - |
| 1777367657 | 8.33° C | 60% | 1031.9 hPa | - | - | - | - |
| 1777366757 | 7.22° C | 60% | 1032 hPa | - | - | - | - |
| 1777364956 | 7.22° C | 63% | 1032.2 hPa | - | - | - | - |
| 1777364056 | 6.67° C | 62% | 1032.3 hPa | - | - | - | - |
| 1777363155 | 6.11° C | 66% | 1032.4 hPa | - | - | - | - |
| 1777362254 | 6.11° C | 71% | 1032.6 hPa | - | - | - | - |
| 1777361354 | 5.56° C | 70% | 1032.5 hPa | - | - | - | - |
| 1777360454 | 5.56° C | 74% | 1032.6 hPa | - | - | - | - |
| 1777359553 | 5° C | 75% | 1032.5 hPa | - | - | - | - |
| 1777357752 | 4.44° C | 77% | 1032.5 hPa | - | - | - | - |
* Rain since midnight (hover to see other rain measurements)
** Current wind speed in m/s (hover to see current wind gust speed)